Flag for France Weather past 2 weeks in Rennes, France

Now
72 °F

Partly sunny.


Feels Like: 77 °F
Forecast: 55 / 71 °F
Wind: 9 mph from Southwest

Location: Rennes Airport

Current Time: Aug 29, 2014 at 3:05:19 PM

Latest Report: Aug 29, 2014 at 2:30 PM


Visibility: N/A

Pressure: 30.09 "Hg

Humidity: 53%

Dew point: 54 °F

Location of RennesLocation

Historic Weather in Rennes — Graph

°F

Rennes temperature yesterday

Maximum temperature yesterday: 73 °F (at 2:00 PM)
Minimum temperature yesterday: 61 °F (at 7:00 AM)
Average temperature yesterday: 66 °F

Past Weeks' High & Low Weather Summary

 TemperatureHumidityPressure
High73 °F (Aug 16, 4:30 PM)100% (Aug 16, 3:30 AM)30.27 "Hg (Aug 16, 3:30 AM)
Low45 °F (Aug 21, 6:30 AM)40% (Aug 20, 4:30 PM)29.65 "Hg (Aug 26, 4:00 AM)
Average61 °F77%30.00 "Hg
* Reported Aug 14 2:00 PM — Aug 29 2:00 PM, Rennes, Weather by CustomWeather, © 2014

Note: Actual official high and low records may vary slightly from our data, if they occured in-between our weather recording intervals... More about our weather records

Advertising

Rennes weather history for previous 24 hours

 ConditionsComfort  
Time TempWeatherWind HumidityBarometerVisibility
2:00 PM
Aug 29
70 °FBroken clouds.9 mph57%30.09 "HgN/A
1:30 PM68 °FBroken clouds.8 mph60%30.09 "HgN/A
1:00 PM70 °FPartly sunny.12 mph60%30.09 "HgN/A
12:30 PM68 °FBroken clouds.10 mph64%30.09 "HgN/A
12:00 PM66 °FScattered clouds.10 mph68%30.09 "HgN/A
11:30 AM64 °FPartly sunny.7 mph78%30.09 "HgN/A
11:00 AM64 °FPartly sunny.8 mph78%30.09 "HgN/A
10:30 AM63 °FPartly sunny.5 mph83%30.09 "HgN/A
10:00 AM59 °FPartly sunny.5 mph94%30.09 "HgN/A
9:30 AM57 °FLow clouds.5 mph100%30.09 "HgN/A
9:00 AM57 °FLow clouds.3 mph94%30.07 "HgN/A
8:30 AM55 °FLow clouds.5 mph100%30.07 "Hg5 mi
8:00 AM55 °FLow clouds.3 mph94%30.07 "HgN/A
7:30 AM54 °FPassing clouds.5 mph94%30.07 "HgN/A
7:00 AM54 °FPassing clouds.5 mph94%30.07 "Hg5 mi
6:30 AM54 °FFog.6 mph94%30.04 "Hg3 mi
6:00 AM55 °FFog.2 mph94%30.04 "Hg1 mi
5:30 AM55 °FClear.3 mph94%30.04 "HgN/A
5:00 AM57 °FClear.3 mph94%30.04 "HgN/A
4:30 AM57 °FClear.3 mph94%30.04 "HgN/A
4:00 AM59 °FClear.3 mph94%30.04 "HgN/A
3:30 AM61 °FClear.3 mph88%30.04 "HgN/A
3:00 AM61 °FClear.3 mph94%30.01 "HgN/A
2:30 AM63 °FMostly cloudy.6 mph94%30.01 "HgN/A
2:00 AM63 °FMostly cloudy.5 mph94%30.04 "HgN/A
1:30 AM63 °FOvercast.6 mph94%30.01 "HgN/A
1:00 AM63 °FMostly cloudy.5 mph94%30.01 "HgN/A
12:30 AM63 °FMostly cloudy.3 mph88%30.04 "HgN/A
12:00 AM63 °FMostly cloudy.5 mph88%30.01 "HgN/A
11:30 PM
Aug 28
64 °FMostly cloudy.8 mph83%30.01 "HgN/A
11:00 PM64 °FMostly cloudy.6 mph83%30.01 "HgN/A
10:30 PM64 °FOvercast.6 mph83%30.01 "HgN/A
10:00 PM64 °FMostly cloudy.8 mph88%30.01 "HgN/A
9:30 PM64 °FCloudy.5 mph78%30.01 "HgN/A
9:00 PM66 °FMore clouds than sun.8 mph73%30.01 "HgN/A
8:30 PM66 °FOvercast.8 mph78%30.01 "HgN/A
8:00 PM68 °FOvercast.9 mph69%30.01 "HgN/A
7:30 PM68 °FBroken clouds.14 mph69%29.98 "HgN/A
7:00 PM70 °FOvercast.12 mph69%29.98 "HgN/A
6:30 PM70 °FClear.9 mph64%29.98 "HgN/A
6:00 PM70 °FOvercast.10 mph64%29.98 "HgN/A
5:30 PM72 °FClear.13 mph61%29.98 "HgN/A
5:00 PM70 °FMostly cloudy.9 mph69%29.98 "HgN/A
4:30 PM72 °FPartly sunny.13 mph65%29.98 "HgN/A
4:00 PM72 °FScattered clouds.12 mph65%29.98 "HgN/A
3:30 PM72 °FMostly cloudy.8 mph65%29.98 "HgN/A
3:00 PM70 °FCloudy.10 mph64%29.98 "HgN/A
Weather by CustomWeather, © 2014

See weather overviewHow to use our weather pages